User: anonymous   Login
Location: Unspecified
(0.0000°N, 0.0000°E)
Time: 03:39:50
(UTC+00:00)
Language:

NOSS 3-4 (C) - Orbit

View from above orbital plane
View from above orbital plane
View from above satellite
View from above satellite

Ground track
Ground track

The orbit data is extracted from the following two-line orbital elements,

1 31708U 07027C   17171.89727370 0.00000000  00000-0  00000-0 0    08
2 31708  63.4000  74.1584 0187000  23.1948 336.8052 13.40731136    02
Epoch (UTC): 20 June 2017 21:32:04
Eccentricity: 0.0187000
inclination: 63.4000°
perigee height: 966 km
apogee height: 1246 km
right ascension of ascending node: 74.1584°
argument of perigee: 23.1948°
revolutions per day: 13.40731136
mean anomaly at epoch: 336.8052°
orbit number at epoch: 0

The dashed part of the orbit path shows where the satellite is in the earth's shadow,  

DLR